Theta_e
315 313 313 314 314 314 314 306 304 302 304 304 303 302 303 302 302 303 304 307 308 303 305 306 308 308 309 311 308 308 313 312 311 311 310 308 310 307 308 313 315 317 315 315 322
315 315 314 314 314 314 314 306 303 302 303 304 303 302 302 304 302 302 301 303 303 303 305 307 309 309 310 310 310 313 312 311 308 307 308 307 308 307 310 312 314 317 318 317 322
316 315 314 314 314 313 313 307 303 302 302 302 302 302 303 304 306 302 302 303 303 303 305 305 306 309 309 310 309 310 311 307 306 308 305 306 307 305 308 310 309 310 315 318 320
316 316 314 314 314 313 313 311 303 302 301 301 302 303 303 305 309 302 303 303 304 303 304 305 307 310 309 309 307 309 306 306 306 304 304 305 305 306 306 308 305 310 310 318 319
316 316 315 314 314 313 312 312 305 302 301 301 302 304 304 305 303 302 303 304 304 304 304 305 307 308 310 308 308 308 306 305 304 305 305 304 305 305 306 304 311 315 316 318 318
315 315 314 315 314 313 313 311 306 303 301 302 302 304 305 305 301 302 303 303 304 304 304 305 305 306 307 306 308 306 306 305 305 305 305 306 305 305 304 303 313 317 319 319 317
315 314 314 314 313 313 311 306 305 304 302 303 302 303 304 303 302 303 303 303 303 303 305 304 304 306 306 307 304 305 306 305 306 305 306 305 306 306 304 302 311 316 318 318 318
313 313 314 313 313 312 306 303 305 305 302 303 302 303 304 303 302 303 304 304 304 304 304 304 303 306 306 304 307 305 306 309 306 306 305 305 311 306 303 302 306 312 316 317 316
313 312 312 312 304 308 304 303 305 305 304 304 304 306 305 303 303 303 303 304 305 306 306 305 305 307 308 307 308 312 313 310 311 305 305 307 310 307 304 304 304 304 306 308 308
312 312 312 306 304 306 306 305 306 304 304 304 304 308 305 304 302 303 304 305 307 306 309 308 307 310 309 312 315 313 314 311 311 306 306 308 310 309 307 304 306 305 303 303 304
312 312 311 305 303 304 306 307 307 306 302 303 302 303 303 302 302 303 303 304 307 309 312 308 313 310 306 306 306 308 310 310 309 303 305 306 306 308 308 306 306 306 304 303 303
312 312 311 305 303 304 305 304 301 302 304 301 301 302 301 301 305 304 304 307 307 310 307 312 309 305 304 305 305 307 309 310 307 304 303 303 304 306 304 304 302 304 304 303 302
312 309 310 307 304 303 303 302 302 302 305 302 301 302 302 302 303 304 303 305 306 309 309 310 305 303 304 304 308 305 306 305 304 303 299 301 307 307 303 300 300 300 301 301 301
312 306 304 308 304 303 302 302 302 300 315 303 304 303 302 301 304 300 300 304 306 308 304 305 302 303 304 303 303 310 300 300 302 306 309 298 311 305 300 300 301 301 300 300 301
307 307 305 304 303 303 302 303 303 301 318 302 303 301 300 302 300 303 299 303 304 302 306 304 303 303 304 300 300 303 300 301 301 304 302 302 307 305 299 301 301 301 299 298 298
301 302 304 304 304 303 304 305 300 318 312 302 301 302 304 301 300 300 301 301 300 302 302 301 298 300 300 299 300 298 298 297 298 303 311 295 300 305 302 299 301 300 299 298 297
302 300 301 302 302 304 304 302 316 316 299 306 304 302 301 301 301 300 301 300 304 313 306 300 301 298 297 302 300 300 308 317 314 314 310 289 299 306 302 299 298 297 298 297 297
304 303 299 299 300 303 300 311 314 298 301 300 302 300 302 299 300 299 302 303 299 300 302 306 310 301 296 299 301 299 300 307 305 305 304 289 305 304 296 295 296 297 297 298 298
304 301 299 297 299 300 307 312 311 301 302 303 301 303 304 298 299 299 300 302 299 298 306 305 303 297 296 295 297 299 304 293 295 284 300 301 301 299 297 298 297 296 296 296 295
303 301 298 298 298 298 305 306 302 298 301 302 304 299 305 301 300 301 297 299 299 298 295 298 307 294 297 295 295 298 294 303 301 304 304 303 298 302 304 300 297 295 295 294 293
300 306 299 298 298 303 311 303 297 297 300 302 301 301 299 301 298 300 298 298 298 297 295 295 299 303 295 299 301 298 301 297 298 297 304 303 304 308 301 295 293 293 293 293 292
297 309 297 297 304 292 305 295 297 301 300 301 299 298 299 298 299 298 298 298 297 297 299 298 298 303 302 293 294 295 299 298 301 301 297 297 301 296 292 290 289 291 292 292 291
301 301 295 298 311 303 294 297 299 301 300 300 299 299 296 298 300 297 298 298 298 298 299 298 300 304 305 295 293 296 296 294 294 295 300 299 300 288 291 295 294 290 292 291 289
300 307 301 296 294 301 299 299 300 298 300 299 299 298 297 295 294 297 297 298 297 297 298 297 296 302 301 303 296 297 296 295 297 301 299 299 301 299 296 293 292 291 290 288 289
295 299 293 306 303 296 296 296 298 299 298 298 297 299 299 296 295 295 296 296 298 298 297 298 300 294 295 293 289 294 295 295 294 297 298 299 297 297 293 290 289 287 288 289 289
302 302 293 295 295 297 297 297 298 295 299 299 298 296 297 297 297 296 295 296 296 297 298 294 298 290 295 290 290 292 293 294 293 294 291 293 294 288 287 285 289 290 290 289 287
293 293 298 295 296 298 300 297 297 296 296 296 297 298 297 297 295 295 294 294 295 297 297 295 294 295 298 287 289 296 294 293 292 290 292 294 292 286 288 288 288 289 288 287 286
Wind_Speed
13 12 14 14 15 15 16 18 17 14 12 10 8 6 8 12 17 12 11 11 10 11 8 2 4 4 4 3 4 0 1 3 2 1 3 4 1 2 1 1 2 2 2 2 11
12 10 11 13 14 16 15 17 16 14 12 9 8 5 2 3 9 19 15 13 9 8 5 3 3 3 3 3 3 2 1 2 1 1 1 2 2 4 2 1 3 3 3 2 13
10 9 9 11 13 14 16 17 15 14 12 10 7 5 3 2 3 6 19 12 7 5 4 3 1 2 4 3 4 2 2 3 2 3 2 3 2 2 2 2 2 2 1 6 11
7 7 9 10 12 14 15 14 14 13 11 10 8 5 5 1 2 9 17 11 8 4 2 1 1 2 3 3 2 3 3 1 2 2 2 1 4 2 3 2 4 5 2 11 11
6 7 8 10 11 14 14 12 13 11 10 10 8 5 3 6 5 15 14 10 6 3 5 3 4 2 5 4 2 4 3 3 1 1 1 3 3 3 4 3 4 2 6 8 9
5 7 9 10 13 15 12 11 11 10 9 9 9 4 3 7 9 17 11 9 9 6 6 6 3 3 6 4 2 2 2 2 3 4 2 4 1 3 4 3 1 1 4 7 8
5 7 9 10 13 12 11 10 8 8 7 8 6 10 20 6 8 17 10 11 10 7 3 5 2 1 3 4 2 3 4 3 4 5 1 3 4 5 1 2 3 4 5 5 7
7 8 9 11 12 11 11 9 5 7 8 6 8 8 5 9 8 20 13 9 8 7 6 5 6 7 4 3 2 1 1 2 3 8 2 4 3 1 2 3 5 6 5 5 4
9 10 9 10 11 9 8 17 9 6 10 9 7 5 4 8 9 19 13 7 7 7 8 6 5 5 3 3 1 5 1 3 2 6 5 3 5 2 1 4 8 7 6 5 4
11 11 10 10 13 6 1 2 13 9 6 6 17 2 8 8 10 15 10 10 5 4 2 7 5 4 6 6 3 4 4 3 5 8 7 7 13 10 8 8 9 7 6 5 5
12 11 12 12 16 7 3 1 3 6 17 6 2 4 4 12 5 14 13 5 4 6 5 6 10 8 8 5 2 2 3 6 3 6 9 5 15 18 12 10 12 10 7 7 6
11 12 10 10 18 11 11 8 3 3 10 8 4 3 3 9 4 22 14 4 8 5 5 5 7 6 4 5 3 5 4 5 5 5 7 9 21 16 7 5 7 8 6 5 3
9 11 8 6 7 18 20 9 5 3 3 5 4 4 5 7 5 12 12 3 6 6 9 6 2 6 1 6 5 5 4 4 4 12 2 15 7 3 3 3 4 1 2 2 2
9 8 13 3 3 6 6 5 4 2 4 13 9 6 4 3 4 5 8 3 5 3 4 6 5 3 5 5 4 2 4 3 4 7 4 8 4 2 6 8 10 11 11 7 4
10 8 10 12 3 5 2 3 2 1 4 11 6 7 5 6 6 10 6 5 6 4 2 3 7 7 6 4 4 2 2 3 1 1 2 5 2 2 3 6 10 12 12 11 5
15 12 8 4 10 5 3 2 1 4 4 5 5 9 4 7 5 7 6 9 1 3 10 4 1 4 4 3 2 4 1 1 2 1 1 2 3 3 4 5 9 13 15 13 11
11 12 12 9 2 3 2 1 4 5 2 5 4 6 2 7 6 10 6 8 5 3 5 1 2 2 3 2 2 3 2 2 1 1 1 2 4 5 5 7 6 11 13 12 10
7 8 8 10 6 3 1 4 8 1 3 1 3 4 5 9 4 7 2 3 7 4 3 4 1 4 6 3 1 4 2 1 4 3 4 1 5 2 6 5 5 5 9 10 10
5 4 4 13 6 2 3 6 3 4 1 1 1 3 4 2 3 4 5 2 4 6 3 4 1 2 4 1 3 2 1 1 5 1 2 2 6 3 4 6 10 14 16 14 15
3 3 3 12 5 2 5 4 2 1 0 1 2 1 1 5 2 4 2 1 1 2 0 2 4 1 1 1 6 2 3 1 1 3 4 2 4 6 3 3 7 20 17 17 17
1 2 3 9 3 5 4 3 3 3 1 1 2 2 0 2 2 1 0 2 2 1 1 3 1 1 2 3 3 2 1 2 1 2 3 4 3 3 1 5 8 13 13 12 13
2 2 4 4 4 1 2 4 3 3 2 1 1 2 2 2 1 1 1 2 1 1 1 1 1 4 1 2 1 1 1 3 3 3 2 3 7 6 6 3 4 10 11 12 10
1 1 4 3 3 2 1 1 2 4 3 4 3 0 2 3 0 2 2 2 3 3 2 3 1 4 2 2 1 3 4 2 2 0 7 6 6 3 3 8 6 6 10 12 12
1 2 3 5 2 4 4 2 3 1 2 2 3 3 3 1 1 2 3 2 2 2 3 2 2 5 7 3 1 5 7 8 5 5 7 11 17 16 14 13 13 15 14 12 10
4 1 1 0 2 3 2 3 3 4 1 3 0 5 5 4 2 3 3 2 1 1 2 2 4 2 7 6 3 6 12 10 11 10 9 15 8 10 8 8 8 12 10 10 14
2 3 0 2 0 3 0 5 7 3 5 4 4 5 6 5 4 5 5 4 3 3 4 1 2 1 5 2 5 8 19 11 15 13 10 16 16 2 5 6 9 13 9 13 17
3 2 0 1 1 2 3 4 5 5 2 2 2 3 4 5 2 2 2 2 1 4 6 2 4 2 4 5 8 8 9 7 4 4 3 4 3 5 8 13 14 12 11 15 16
Wind_Direction
356 1 4 9 6 9 8 11 11 13 16 20 22 44 76 85 68 62 43 337 326 346 359 64 57 43 46 71 36 318 126 107 99 187 61 12 269 42 343 160 112 46 6 70 154
353 357 4 4 6 4 8 11 10 12 14 16 20 28 78 101 69 54 3 351 350 356 32 29 71 32 75 58 29 39 86 107 43 31 14 5 342 327 268 163 137 162 108 112 164
354 9 5 3 3 3 7 11 9 9 8 14 15 22 49 131 107 3 354 359 2 0 44 56 43 70 77 40 23 50 78 141 88 18 308 313 191 324 288 190 67 349 29 153 174
352 2 5 3 0 359 1 6 8 10 7 11 12 30 49 60 78 345 353 2 12 13 59 71 18 80 88 87 35 119 77 67 113 348 243 291 307 254 276 43 323 297 196 169 186
339 355 1 359 356 355 354 1 5 12 11 14 14 28 43 57 31 345 357 9 30 57 52 62 63 89 93 89 91 78 135 121 122 12 282 268 257 308 260 321 331 32 150 168 187
9 359 356 352 353 353 357 1 359 11 15 20 25 49 55 72 346 353 5 25 42 48 45 39 79 83 88 68 42 70 102 92 27 4 4 326 291 309 156 345 282 160 165 172 190
31 5 355 350 351 356 3 359 14 19 23 33 37 68 61 52 3 9 16 23 33 43 52 46 74 74 131 118 82 122 190 153 35 339 31 322 246 241 44 339 249 209 197 196 203
28 7 359 352 358 358 10 11 17 37 39 47 46 71 74 11 8 16 25 35 37 45 58 45 71 91 37 119 77 36 242 234 66 0 47 309 315 53 25 283 243 231 225 223 213
25 13 7 11 7 13 63 48 43 56 49 51 39 72 48 349 6 3 8 358 8 41 43 38 52 52 31 19 99 28 4 351 84 40 336 350 316 49 326 284 266 240 232 233 223
30 33 36 21 10 16 153 1 32 54 23 35 28 86 27 329 328 349 359 14 16 339 28 34 43 63 34 14 53 360 357 354 338 2 336 309 281 295 275 248 260 254 232 222 218
24 26 22 22 11 32 118 47 26 23 39 56 359 77 325 325 7 3 358 349 7 56 38 33 62 43 15 2 327 304 322 326 346 18 329 346 301 287 291 265 260 248 230 224 225
13 14 15 29 40 58 88 71 55 124 79 38 47 50 360 344 357 9 11 58 44 41 347 56 57 353 309 10 32 25 356 356 289 21 341 332 292 298 332 329 332 321 282 263 237
9 15 13 26 47 60 74 81 95 117 73 36 33 17 340 355 37 351 7 35 70 56 45 91 5 305 199 34 26 49 20 5 322 320 64 330 282 324 50 357 359 359 318 287 271
5 27 19 16 39 43 51 51 55 100 78 354 352 28 344 339 63 349 11 16 51 116 71 71 351 16 58 68 355 31 3 320 341 358 346 354 296 343 357 54 55 43 17 334 308
27 13 16 40 77 55 34 24 40 43 69 336 332 319 347 56 319 29 358 38 64 31 288 37 12 14 45 26 346 21 349 19 39 74 225 360 247 293 356 32 16 11 12 10 330
36 29 19 28 55 55 32 25 13 40 52 342 326 354 10 22 24 312 21 47 92 57 51 72 57 31 353 326 356 314 266 48 99 139 133 20 348 287 26 344 351 359 3 359 349
28 27 40 53 53 12 14 63 43 70 356 333 344 359 21 359 12 12 31 35 26 34 17 8 48 62 5 302 223 341 304 325 328 356 305 60 268 272 360 18 357 346 345 349 344
2 2 26 37 14 8 49 54 65 353 255 4 328 326 45 359 37 8 50 51 48 15 83 14 7 13 352 49 354 31 2 32 301 297 325 140 240 106 349 13 36 28 6 6 356
353 1 23 359 360 14 78 52 157 186 167 297 257 59 7 25 352 23 35 43 10 2 24 344 282 103 37 13 331 94 93 95 102 98 259 300 274 263 138 50 57 27 6 1 355
1 351 1 353 356 36 71 115 144 243 231 243 90 338 25 341 6 33 18 356 54 33 55 139 295 79 123 162 54 11 121 198 101 279 272 234 274 269 241 12 12 2 359 350 350
12 50 335 352 38 47 89 126 193 211 251 3 138 130 325 344 358 5 73 174 214 141 77 144 249 160 194 186 153 140 187 53 335 272 271 295 237 205 153 55 357 339 339 341 333
48 25 342 7 44 46 85 169 185 161 165 155 111 109 180 161 183 233 246 234 178 182 288 134 168 273 335 108 338 301 252 207 227 231 241 315 274 49 91 65 318 323 335 335 332
46 306 354 13 118 89 168 164 211 154 176 167 151 108 136 167 275 224 232 147 183 208 201 170 223 304 241 158 158 230 200 178 98 208 222 262 258 123 98 360 13 324 332 333 330
62 18 342 54 18 118 144 160 163 266 152 152 129 141 158 150 194 207 233 205 184 213 111 185 217 226 250 275 56 244 205 206 201 232 269 237 271 291 355 355 346 341 334 329 329
22 104 218 297 32 103 92 131 145 192 248 199 153 218 173 171 204 222 223 219 205 162 82 203 241 243 263 257 220 255 256 209 206 234 246 272 276 313 353 333 312 303 305 326 337
133 148 100 113 142 134 4 206 182 209 162 222 222 187 187 193 208 199 171 206 209 163 183 157 241 200 285 32 251 265 264 243 230 248 258 273 282 105 299 292 313 316 333 331 333
128 110 263 9 132 122 228 181 210 151 209 344 194 147 223 253 247 343 316 54 109 185 174 188 168 173 252 347 321 267 259 190 177 192 193 238 39 335 336 332 323 325 332 333 322